TimeEDT,TemperatureF,Dew PointF,Humidity,Sea Level PressureIn,VisibilityMPH,Wind Direction,Wind SpeedMPH,Gust SpeedMPH,PrecipitationIn,Events,Conditions,WindDirDegrees,DateUTC
12:15 AM,51.8,42.8,71,30.34,10.0,East,4.6,-,N/A,,Mostly Cloudy,100,2013-04-16 04:15:00
12:35 AM,51.8,42.8,71,30.33,10.0,East,4.6,-,N/A,,Overcast,100,2013-04-16 04:35:00
12:55 AM,51.8,42.8,71,30.33,10.0,ESE,4.6,-,N/A,,Scattered Clouds,110,2013-04-16 04:55:00
1:15 AM,50.0,42.8,76,30.33,10.0,East,6.9,-,N/A,,Scattered Clouds,90,2013-04-16 05:15:00
1:35 AM,50.0,42.8,76,30.33,10.0,East,4.6,-,N/A,,Scattered Clouds,100,2013-04-16 05:35:00
1:55 AM,50.0,42.8,76,30.32,10.0,East,4.6,-,N/A,,Scattered Clouds,90,2013-04-16 05:55:00
2:15 AM,50.0,42.8,76,30.32,10.0,East,5.8,-,N/A,,Mostly Cloudy,90,2013-04-16 06:15:00
2:35 AM,50.0,42.8,76,30.31,10.0,East,5.8,-,N/A,,Overcast,90,2013-04-16 06:35:00
2:55 AM,50.0,42.8,76,30.31,10.0,East,4.6,-,N/A,,Overcast,100,2013-04-16 06:55:00
3:15 AM,50.0,42.8,76,30.31,10.0,East,5.8,-,N/A,,Overcast,100,2013-04-16 07:15:00
3:35 AM,50.0,42.8,76,30.31,10.0,East,4.6,-,N/A,,Overcast,80,2013-04-16 07:35:00
3:55 AM,48.2,42.8,82,30.31,10.0,East,5.8,-,N/A,,Mostly Cloudy,90,2013-04-16 07:55:00
4:15 AM,48.2,42.8,82,30.32,10.0,East,5.8,-,N/A,,Mostly Cloudy,90,2013-04-16 08:15:00
4:35 AM,48.2,42.8,82,30.31,10.0,East,4.6,-,N/A,,Mostly Cloudy,80,2013-04-16 08:35:00
4:55 AM,48.2,42.8,82,30.31,10.0,East,5.8,-,N/A,,Mostly Cloudy,90,2013-04-16 08:55:00
5:15 AM,48.2,42.8,82,30.30,10.0,East,5.8,-,N/A,,Mostly Cloudy,80,2013-04-16 09:15:00
5:35 AM,46.4,42.8,87,30.31,10.0,Calm,Calm,-,N/A,,Mostly Cloudy,0,2013-04-16 09:35:00
5:55 AM,46.4,42.8,87,30.31,10.0,East,3.5,-,N/A,,Scattered Clouds,90,2013-04-16 09:55:00
6:15 AM,46.4,42.8,87,30.31,10.0,East,4.6,-,N/A,,Clear,80,2013-04-16 10:15:00
6:35 AM,44.6,42.8,93,30.31,10.0,East,3.5,-,N/A,,Scattered Clouds,80,2013-04-16 10:35:00
6:55 AM,46.4,44.6,93,30.32,10.0,Calm,Calm,-,N/A,,Mostly Cloudy,0,2013-04-16 10:55:00
7:15 AM,48.2,44.6,87,30.33,10.0,East,3.5,-,N/A,,Overcast,80,2013-04-16 11:15:00
7:35 AM,50.0,44.6,82,30.33,10.0,East,5.8,-,N/A,,Overcast,100,2013-04-16 11:35:00
8:15 AM,51.8,44.6,76,30.33,10.0,ESE,3.5,-,N/A,,Mostly Cloudy,120,2013-04-16 12:15:00
8:35 AM,55.4,46.4,72,30.33,10.0,SSE,5.8,-,N/A,,Scattered Clouds,150,2013-04-16 12:35:00
8:55 AM,55.4,46.4,72,30.33,10.0,SSE,4.6,-,N/A,,Scattered Clouds,150,2013-04-16 12:55:00
9:15 AM,57.2,46.4,67,30.33,10.0,South,4.6,-,N/A,,Mostly Cloudy,180,2013-04-16 13:15:00
9:35 AM,59.0,48.2,67,30.33,10.0,South,4.6,-,N/A,,Mostly Cloudy,190,2013-04-16 13:35:00
9:55 AM,60.8,50.0,68,30.32,10.0,South,8.1,-,N/A,,Mostly Cloudy,170,2013-04-16 13:55:00
10:15 AM,60.8,48.2,63,30.32,10.0,South,8.1,-,N/A,,Mostly Cloudy,180,2013-04-16 14:15:00
10:35 AM,62.6,50.0,63,30.31,10.0,South,8.1,-,N/A,,Overcast,170,2013-04-16 14:35:00
10:55 AM,62.6,50.0,63,30.31,10.0,South,8.1,-,N/A,,Mostly Cloudy,170,2013-04-16 14:55:00
11:15 AM,64.4,51.8,64,30.31,10.0,South,11.5,16.1,N/A,,Scattered Clouds,170,2013-04-16 15:15:00
11:35 AM,66.2,51.8,60,30.30,10.0,South,13.8,-,N/A,,Scattered Clouds,180,2013-04-16 15:35:00
11:55 AM,68.0,53.6,60,30.28,10.0,South,8.1,-,N/A,,Mostly Cloudy,180,2013-04-16 15:55:00
12:15 PM,68.0,53.6,60,30.28,10.0,South,13.8,-,N/A,,Scattered Clouds,180,2013-04-16 16:15:00
12:35 PM,69.8,53.6,56,30.27,10.0,SSW,12.7,18.4,N/A,,Scattered Clouds,200,2013-04-16 16:35:00
12:55 PM,69.8,53.6,56,30.26,10.0,SSW,13.8,25.3,N/A,,Scattered Clouds,210,2013-04-16 16:55:00
1:15 PM,69.8,53.6,56,30.26,10.0,SSW,16.1,23.0,N/A,,Scattered Clouds,200,2013-04-16 17:15:00
1:35 PM,69.8,53.6,56,30.26,10.0,SSW,11.5,19.6,N/A,,Scattered Clouds,200,2013-04-16 17:35:00
1:55 PM,69.8,53.6,56,30.23,10.0,SSW,10.4,17.3,N/A,,Mostly Cloudy,200,2013-04-16 17:55:00
2:15 PM,69.8,53.6,56,30.23,10.0,SSW,9.2,17.3,N/A,,Mostly Cloudy,200,2013-04-16 18:15:00
2:35 PM,69.8,53.6,56,30.22,10.0,SW,12.7,24.2,N/A,,Mostly Cloudy,220,2013-04-16 18:35:00
2:55 PM,69.8,53.6,56,30.21,10.0,SW,12.7,19.6,N/A,,Mostly Cloudy,230,2013-04-16 18:55:00
3:15 PM,69.8,55.4,60,30.21,7.0,SSW,8.1,-,N/A,,Mostly Cloudy,210,2013-04-16 19:15:00
3:35 PM,69.8,55.4,60,30.21,10.0,SSW,10.4,19.6,N/A,,Overcast,210,2013-04-16 19:35:00
3:55 PM,71.6,55.4,57,30.20,10.0,SSW,12.7,20.7,N/A,,Scattered Clouds,210,2013-04-16 19:55:00
4:15 PM,71.6,55.4,57,30.19,10.0,SSW,11.5,16.1,N/A,,Scattered Clouds,210,2013-04-16 20:15:00
4:35 PM,71.6,55.4,57,30.18,10.0,South,9.2,-,N/A,,Mostly Cloudy,190,2013-04-16 20:35:00
4:55 PM,71.6,55.4,57,30.18,10.0,South,10.4,16.1,N/A,,Mostly Cloudy,190,2013-04-16 20:55:00
5:15 PM,71.6,55.4,57,30.17,10.0,SSW,13.8,19.6,N/A,,Scattered Clouds,210,2013-04-16 21:15:00
5:35 PM,71.6,55.4,57,30.16,10.0,SW,15.0,21.9,N/A,,Scattered Clouds,220,2013-04-16 21:35:00
5:55 PM,71.6,55.4,57,30.15,10.0,South,12.7,17.3,N/A,,Scattered Clouds,180,2013-04-16 21:55:00
6:15 PM,71.6,55.4,57,30.14,10.0,SSW,11.5,19.6,N/A,,Scattered Clouds,200,2013-04-16 22:15:00
6:35 PM,69.8,55.4,60,30.13,10.0,South,11.5,20.7,N/A,,Clear,190,2013-04-16 22:35:00
6:55 PM,68.0,55.4,64,30.12,10.0,South,15.0,20.7,N/A,,Clear,180,2013-04-16 22:55:00
7:15 PM,68.0,53.6,60,30.12,10.0,South,13.8,19.6,N/A,,Clear,180,2013-04-16 23:15:00
7:35 PM,68.0,53.6,60,30.13,10.0,SSW,8.1,-,N/A,,Clear,200,2013-04-16 23:35:00
8:15 PM,66.2,55.4,68,30.14,10.0,SSW,10.4,-,N/A,,Clear,210,2013-04-17 00:15:00
8:35 PM,64.4,53.6,68,30.14,10.0,South,6.9,-,N/A,,Clear,190,2013-04-17 00:35:00
8:55 PM,64.4,53.6,68,30.14,10.0,South,6.9,-,N/A,,Clear,190,2013-04-17 00:55:00
9:15 PM,64.4,53.6,68,30.15,10.0,South,8.1,-,N/A,,Clear,190,2013-04-17 01:15:00
9:35 PM,62.6,53.6,72,30.15,10.0,SSW,10.4,-,N/A,,Clear,200,2013-04-17 01:35:00
9:55 PM,62.6,53.6,72,30.16,10.0,SSW,5.8,-,N/A,,Clear,200,2013-04-17 01:55:00
10:15 PM,62.6,53.6,72,30.15,10.0,South,8.1,-,N/A,,Clear,190,2013-04-17 02:15:00
10:35 PM,62.6,53.6,72,30.16,10.0,SSW,4.6,-,N/A,,Clear,210,2013-04-17 02:35:00
10:55 PM,62.6,53.6,72,30.16,10.0,SW,3.5,-,N/A,,Clear,220,2013-04-17 02:55:00
11:15 PM,60.8,53.6,77,30.16,10.0,SSW,4.6,-,N/A,,Clear,210,2013-04-17 03:15:00
11:35 PM,60.8,53.6,77,30.15,10.0,SSW,5.8,-,N/A,,Clear,210,2013-04-17 03:35:00
11:55 PM,60.8,53.6,77,30.16,10.0,SSW,5.8,-,N/A,,Clear,200,2013-04-17 03:55:00